Year,Month,Day,Hour,Minute,Value (Times are PST for temperature in C)
2018,07,03,00,00,10.30
2018,07,03,00,01,10.20
2018,07,03,00,02,10.20
2018,07,03,00,03,10.20
2018,07,03,00,04,10.20
2018,07,03,00,05,10.20
2018,07,03,00,06,10.10
2018,07,03,00,07,10.10
2018,07,03,00,08,10.10
2018,07,03,00,09,10.10
2018,07,03,00,10,10.10
2018,07,03,00,11,10.00
2018,07,03,00,12,10.00
2018,07,03,00,13,10.00
2018,07,03,00,14,10.00
2018,07,03,00,15,9.90
2018,07,03,00,16,9.90
2018,07,03,00,17,9.90
2018,07,03,00,18,9.90
2018,07,03,00,19,9.90
2018,07,03,00,20,9.80
2018,07,03,00,21,9.80
2018,07,03,00,22,9.80
2018,07,03,00,23,9.80
2018,07,03,00,24,9.80
2018,07,03,00,25,9.70
2018,07,03,00,26,9.70
2018,07,03,00,27,9.70
2018,07,03,00,28,9.70
2018,07,03,00,29,9.70
2018,07,03,00,30,9.70
2018,07,03,00,31,9.60
2018,07,03,00,32,9.60
2018,07,03,00,33,9.60
2018,07,03,00,34,9.60
2018,07,03,00,35,9.60
2018,07,03,00,36,9.60
2018,07,03,00,37,9.60
2018,07,03,00,38,9.60
2018,07,03,00,39,9.60
2018,07,03,00,40,9.60
2018,07,03,00,41,9.50
2018,07,03,00,42,9.50
2018,07,03,00,43,9.50
2018,07,03,00,44,9.50
2018,07,03,00,45,9.50
2018,07,03,00,46,9.50
2018,07,03,00,47,9.40
2018,07,03,00,48,9.40
2018,07,03,00,49,9.40
2018,07,03,00,50,9.40
2018,07,03,00,51,9.40
2018,07,03,00,52,9.40
2018,07,03,00,53,9.30
2018,07,03,00,54,9.30
2018,07,03,00,55,9.30
2018,07,03,00,56,9.30
2018,07,03,00,57,9.30
2018,07,03,00,58,9.30
2018,07,03,00,59,9.30
2018,07,03,01,00,9.30
2018,07,03,01,01,9.20
2018,07,03,01,02,9.20
2018,07,03,01,03,9.20
2018,07,03,01,04,9.20
2018,07,03,01,05,9.20
2018,07,03,01,06,9.20
2018,07,03,01,07,9.20
2018,07,03,01,08,9.20
2018,07,03,01,09,9.20
2018,07,03,01,10,9.20
2018,07,03,01,11,9.10
2018,07,03,01,12,9.10
2018,07,03,01,13,9.10
2018,07,03,01,14,9.10
2018,07,03,01,15,9.10
2018,07,03,01,16,9.10
2018,07,03,01,17,9.10
2018,07,03,01,18,9.10
2018,07,03,01,19,9.10
2018,07,03,01,20,9.10
2018,07,03,01,21,9.10
2018,07,03,01,22,9.10
2018,07,03,01,23,9.10
2018,07,03,01,24,9.10
2018,07,03,01,25,9.10
2018,07,03,01,26,9.10
2018,07,03,01,27,9.00
2018,07,03,01,28,9.00
2018,07,03,01,29,9.00
2018,07,03,01,30,9.00
2018,07,03,01,31,9.00
2018,07,03,01,32,9.00
2018,07,03,01,33,8.90
2018,07,03,01,34,8.90
2018,07,03,01,35,8.90
2018,07,03,01,36,8.90
2018,07,03,01,37,8.90
2018,07,03,01,38,8.90
2018,07,03,01,39,8.90
2018,07,03,01,40,8.90
2018,07,03,01,41,8.90
2018,07,03,01,42,8.90
2018,07,03,01,43,8.90
2018,07,03,01,44,8.90
2018,07,03,01,45,8.90
2018,07,03,01,46,8.90
2018,07,03,01,47,8.90
2018,07,03,01,48,8.90
2018,07,03,01,49,8.90
2018,07,03,01,50,8.90
2018,07,03,01,51,8.80
2018,07,03,01,52,8.80
2018,07,03,01,53,8.80
2018,07,03,01,54,8.80
2018,07,03,01,55,8.80
2018,07,03,01,56,8.80
2018,07,03,01,57,8.80
2018,07,03,01,58,8.80
2018,07,03,01,59,8.80
2018,07,03,02,00,8.80
2018,07,03,02,01,8.80
2018,07,03,02,02,8.70
2018,07,03,02,03,8.70
2018,07,03,02,04,8.70
2018,07,03,02,05,8.70
2018,07,03,02,06,8.70
2018,07,03,02,07,8.70
2018,07,03,02,08,8.70
2018,07,03,02,09,8.70
2018,07,03,02,10,8.70
2018,07,03,02,11,8.70
2018,07,03,02,12,8.70
2018,07,03,02,13,8.70
2018,07,03,02,14,8.70
2018,07,03,02,15,8.60
2018,07,03,02,16,8.60
2018,07,03,02,17,8.60
2018,07,03,02,18,8.60
2018,07,03,02,19,8.60
2018,07,03,02,20,8.60
2018,07,03,02,21,8.60
2018,07,03,02,22,8.60
2018,07,03,02,23,8.60
2018,07,03,02,24,8.60
2018,07,03,02,25,8.60
2018,07,03,02,26,8.60
2018,07,03,02,27,8.60
2018,07,03,02,28,8.60
2018,07,03,02,29,8.60
2018,07,03,02,30,8.60
2018,07,03,02,31,8.50
2018,07,03,02,32,8.50
2018,07,03,02,33,8.50
2018,07,03,02,34,8.50
2018,07,03,02,35,8.50
2018,07,03,02,36,8.50
2018,07,03,02,37,8.50
2018,07,03,02,38,8.50
2018,07,03,02,39,8.40
2018,07,03,02,40,8.40
2018,07,03,02,41,8.40
2018,07,03,02,42,8.40
2018,07,03,02,43,8.40
2018,07,03,02,44,8.40
2018,07,03,02,45,8.40
2018,07,03,02,46,8.40
2018,07,03,02,47,8.40
2018,07,03,02,48,8.40
2018,07,03,02,49,8.40
2018,07,03,02,50,8.40
2018,07,03,02,51,8.40
2018,07,03,02,52,8.30
2018,07,03,02,53,8.30
2018,07,03,02,54,8.30
2018,07,03,02,55,8.30
2018,07,03,02,56,8.30
2018,07,03,02,57,8.30
2018,07,03,02,58,8.30
2018,07,03,02,59,8.30
2018,07,03,03,00,8.30
2018,07,03,03,01,8.30
2018,07,03,03,02,8.30
2018,07,03,03,03,8.30
2018,07,03,03,04,8.30
2018,07,03,03,05,8.30
2018,07,03,03,06,8.30
2018,07,03,03,07,8.30
2018,07,03,03,08,8.30
2018,07,03,03,09,8.30
2018,07,03,03,10,8.30
2018,07,03,03,11,8.30
2018,07,03,03,12,8.30
2018,07,03,03,13,8.30
2018,07,03,03,14,8.20
2018,07,03,03,15,8.20
2018,07,03,03,16,8.20
2018,07,03,03,17,8.20
2018,07,03,03,18,8.20
2018,07,03,03,19,8.20
2018,07,03,03,20,8.20
2018,07,03,03,21,8.20
2018,07,03,03,22,8.20
2018,07,03,03,23,8.10
2018,07,03,03,24,8.10
2018,07,03,03,25,8.10
2018,07,03,03,26,8.10
2018,07,03,03,27,8.10
2018,07,03,03,28,8.10
2018,07,03,03,29,8.10
2018,07,03,03,30,8.10
2018,07,03,03,31,8.10
2018,07,03,03,32,8.10
2018,07,03,03,33,8.10
2018,07,03,03,34,8.10
2018,07,03,03,35,8.10
2018,07,03,03,36,8.00
2018,07,03,03,37,8.00
2018,07,03,03,38,8.00
2018,07,03,03,39,8.00
2018,07,03,03,40,8.00
2018,07,03,03,41,8.00
2018,07,03,03,42,8.00
2018,07,03,03,43,7.90
2018,07,03,03,44,7.90
2018,07,03,03,45,7.90
2018,07,03,03,46,7.90
2018,07,03,03,47,7.90
2018,07,03,03,48,7.90
2018,07,03,03,49,7.90
2018,07,03,03,50,7.90
2018,07,03,03,51,7.80
2018,07,03,03,52,7.80
2018,07,03,03,53,7.80
2018,07,03,03,54,7.80
2018,07,03,03,55,7.80
2018,07,03,03,56,7.80
2018,07,03,03,57,7.80
2018,07,03,03,58,7.80
2018,07,03,03,59,7.80
2018,07,03,04,00,7.80
2018,07,03,04,01,7.80
2018,07,03,04,02,7.80
2018,07,03,04,03,7.80
2018,07,03,04,04,7.80
2018,07,03,04,05,7.80
2018,07,03,04,06,7.70
2018,07,03,04,07,7.70
2018,07,03,04,08,7.70
2018,07,03,04,09,7.70
2018,07,03,04,10,7.70
2018,07,03,04,11,7.70
2018,07,03,04,12,7.70
2018,07,03,04,13,7.70
2018,07,03,04,14,7.70
2018,07,03,04,15,7.70
2018,07,03,04,16,7.70
2018,07,03,04,17,7.70
2018,07,03,04,18,7.70
2018,07,03,04,19,7.70
2018,07,03,04,20,7.70
2018,07,03,04,21,7.70
2018,07,03,04,22,7.70
2018,07,03,04,23,7.70
2018,07,03,04,24,7.70
2018,07,03,04,25,7.70
2018,07,03,04,26,7.70
2018,07,03,04,27,7.60
2018,07,03,04,28,7.60
2018,07,03,04,29,7.60
2018,07,03,04,30,7.60
2018,07,03,04,31,7.60
2018,07,03,04,32,7.60
2018,07,03,04,33,7.60
2018,07,03,04,34,7.60
2018,07,03,04,35,7.60
2018,07,03,04,36,7.60
2018,07,03,04,37,7.60
2018,07,03,04,38,7.60
2018,07,03,04,39,7.60
2018,07,03,04,40,7.60
2018,07,03,04,41,7.60
2018,07,03,04,42,7.60
2018,07,03,04,43,7.60
2018,07,03,04,44,7.60
2018,07,03,04,45,7.60
2018,07,03,04,46,7.60
2018,07,03,04,47,7.60
2018,07,03,04,48,7.60
2018,07,03,04,49,7.50
2018,07,03,04,50,7.50
2018,07,03,04,51,7.50
2018,07,03,04,52,7.50
2018,07,03,04,53,7.50
2018,07,03,04,54,7.50
2018,07,03,04,55,7.50
2018,07,03,04,56,7.50
2018,07,03,04,57,7.50
2018,07,03,04,58,7.40
2018,07,03,04,59,7.40
2018,07,03,05,00,7.40
2018,07,03,05,01,7.40
2018,07,03,05,02,7.40
2018,07,03,05,03,7.40
2018,07,03,05,04,7.40
2018,07,03,05,05,7.40
2018,07,03,05,06,7.40
2018,07,03,05,07,7.40
2018,07,03,05,08,7.40
2018,07,03,05,09,7.40
2018,07,03,05,10,7.40
2018,07,03,05,11,7.40
2018,07,03,05,12,7.40
2018,07,03,05,13,7.40
2018,07,03,05,14,7.40
2018,07,03,05,15,7.40
2018,07,03,05,16,7.40
2018,07,03,05,17,7.30
2018,07,03,05,18,7.30
2018,07,03,05,19,7.30
2018,07,03,05,20,7.30
2018,07,03,05,21,7.30
2018,07,03,05,22,7.30
2018,07,03,05,23,7.30
2018,07,03,05,24,7.30
2018,07,03,05,25,7.30
2018,07,03,05,26,7.30
2018,07,03,05,27,7.30
2018,07,03,05,28,7.30
2018,07,03,05,29,7.30
2018,07,03,05,30,7.30
2018,07,03,05,31,7.30
2018,07,03,05,32,7.30
2018,07,03,05,33,7.30
2018,07,03,05,34,7.30
2018,07,03,05,35,7.30
2018,07,03,05,36,7.30
2018,07,03,05,37,7.30
2018,07,03,05,38,7.30
2018,07,03,05,39,7.30
2018,07,03,05,40,7.30
2018,07,03,05,41,7.30
2018,07,03,05,42,7.30
2018,07,03,05,43,7.30
2018,07,03,05,44,7.30
2018,07,03,05,45,7.30
2018,07,03,05,46,7.30
2018,07,03,05,47,7.30
2018,07,03,05,48,7.30
2018,07,03,05,49,7.30
2018,07,03,05,50,7.30
2018,07,03,05,51,7.30
2018,07,03,05,52,7.30
2018,07,03,05,53,7.30
2018,07,03,05,54,7.30
2018,07,03,05,55,7.30
2018,07,03,05,56,7.30
2018,07,03,05,57,7.30
2018,07,03,05,58,7.30
2018,07,03,05,59,7.20
2018,07,03,06,00,7.30
2018,07,03,06,01,7.30
2018,07,03,06,02,7.30
2018,07,03,06,03,7.30
2018,07,03,06,04,7.30
2018,07,03,06,05,7.30
2018,07,03,06,06,7.30
2018,07,03,06,07,7.30
2018,07,03,06,08,7.30
2018,07,03,06,09,7.30
2018,07,03,06,10,7.30
2018,07,03,06,11,7.30
2018,07,03,06,12,7.30
2018,07,03,06,13,7.30
2018,07,03,06,14,7.30
2018,07,03,06,15,7.30
2018,07,03,06,16,7.30
2018,07,03,06,17,7.30
2018,07,03,06,18,7.40
2018,07,03,06,19,7.40
2018,07,03,06,20,7.40
2018,07,03,06,21,7.40
2018,07,03,06,22,7.40
2018,07,03,06,23,7.40
2018,07,03,06,24,7.40
2018,07,03,06,25,7.40
2018,07,03,06,26,7.40
2018,07,03,06,27,7.40
2018,07,03,06,28,7.40
2018,07,03,06,29,7.40
2018,07,03,06,30,7.40
2018,07,03,06,31,7.40
2018,07,03,06,32,7.40
2018,07,03,06,33,7.50
2018,07,03,06,34,7.50
2018,07,03,06,35,7.50
2018,07,03,06,36,7.50
2018,07,03,06,37,7.50
2018,07,03,06,38,7.60
2018,07,03,06,39,7.60
2018,07,03,06,40,7.60
2018,07,03,06,41,7.60
2018,07,03,06,42,7.60
2018,07,03,06,43,7.60
2018,07,03,06,44,7.60
2018,07,03,06,45,7.60
2018,07,03,06,46,7.70
2018,07,03,06,47,7.70
2018,07,03,06,48,7.70
2018,07,03,06,49,7.70
2018,07,03,06,50,7.70
2018,07,03,06,51,7.70
2018,07,03,06,52,7.70
2018,07,03,06,53,7.70
2018,07,03,06,54,7.80
2018,07,03,06,55,7.80
2018,07,03,06,56,7.80
2018,07,03,06,57,7.80
2018,07,03,06,58,7.90
2018,07,03,06,59,7.90
2018,07,03,07,00,7.90
2018,07,03,07,01,7.90
2018,07,03,07,02,8.00
2018,07,03,07,03,8.00
2018,07,03,07,04,8.00
2018,07,03,07,05,8.10
2018,07,03,07,06,8.10
2018,07,03,07,07,8.10
2018,07,03,07,08,8.20
2018,07,03,07,09,8.20
2018,07,03,07,10,8.20
2018,07,03,07,11,8.30
2018,07,03,07,12,8.30
2018,07,03,07,13,8.40
2018,07,03,07,14,8.40
2018,07,03,07,15,8.40
2018,07,03,07,16,8.50
2018,07,03,07,17,8.60
2018,07,03,07,18,8.60
2018,07,03,07,19,8.60
2018,07,03,07,20,8.70
2018,07,03,07,21,8.80
2018,07,03,07,22,8.80
2018,07,03,07,23,8.90
2018,07,03,07,24,8.90
2018,07,03,07,25,9.00
2018,07,03,07,26,9.10
2018,07,03,07,27,9.20
2018,07,03,07,28,9.30
2018,07,03,07,29,9.40
2018,07,03,07,30,9.50
2018,07,03,07,31,9.60
2018,07,03,07,32,9.70
2018,07,03,07,33,9.80
2018,07,03,07,34,9.90
2018,07,03,07,35,10.00
2018,07,03,07,36,10.10
2018,07,03,07,37,10.20
2018,07,03,07,38,10.30
2018,07,03,07,39,10.40
2018,07,03,07,40,10.50
2018,07,03,07,41,10.60
2018,07,03,07,42,10.70
2018,07,03,07,43,10.80
2018,07,03,07,44,10.90
2018,07,03,07,45,11.10
2018,07,03,07,46,11.20
2018,07,03,07,47,11.30
2018,07,03,07,48,11.40
2018,07,03,07,49,11.50
2018,07,03,07,50,11.70
2018,07,03,07,51,11.80
2018,07,03,07,52,11.90
2018,07,03,07,53,12.00
2018,07,03,07,54,12.10
2018,07,03,07,55,12.20
2018,07,03,07,56,12.30
2018,07,03,07,57,12.40
2018,07,03,07,58,12.50
2018,07,03,07,59,12.60
2018,07,03,08,00,12.70
2018,07,03,08,01,12.80
2018,07,03,08,02,13.00
2018,07,03,08,03,13.10
2018,07,03,08,04,13.20
2018,07,03,08,05,13.30
2018,07,03,08,06,13.40
2018,07,03,08,07,13.50
2018,07,03,08,08,13.60
2018,07,03,08,09,13.70
2018,07,03,08,10,13.70
2018,07,03,08,11,13.80
2018,07,03,08,12,13.90
2018,07,03,08,13,14.00
2018,07,03,08,14,14.00
2018,07,03,08,15,14.20
2018,07,03,08,16,14.20
2018,07,03,08,17,14.30
2018,07,03,08,18,14.40
2018,07,03,08,19,14.40
2018,07,03,08,20,14.50
2018,07,03,08,21,14.50
2018,07,03,08,22,14.60
2018,07,03,08,23,14.70
2018,07,03,08,24,14.70
2018,07,03,08,25,14.80
2018,07,03,08,26,14.80
2018,07,03,08,27,14.90
2018,07,03,08,28,15.00
2018,07,03,08,29,15.00
2018,07,03,08,30,15.10
2018,07,03,08,31,15.20
2018,07,03,08,32,15.20
2018,07,03,08,33,15.30
2018,07,03,08,34,15.40
2018,07,03,08,35,15.50
2018,07,03,08,36,15.50
2018,07,03,08,37,15.60
2018,07,03,08,38,15.70
2018,07,03,08,39,15.80
2018,07,03,08,40,15.90
2018,07,03,08,41,16.00
2018,07,03,08,42,16.10
2018,07,03,08,43,16.10
2018,07,03,08,44,16.20
2018,07,03,08,45,16.20
2018,07,03,08,46,16.20
2018,07,03,08,47,16.20
2018,07,03,08,48,16.20
2018,07,03,08,49,16.20
2018,07,03,08,50,16.20
2018,07,03,08,51,16.30
2018,07,03,08,52,16.30
2018,07,03,08,53,16.30
2018,07,03,08,54,16.40
2018,07,03,08,55,16.40
2018,07,03,08,56,16.50
2018,07,03,08,57,16.50
2018,07,03,08,58,16.60
2018,07,03,08,59,16.60
2018,07,03,09,00,16.70
2018,07,03,09,01,16.80
2018,07,03,09,02,16.90
2018,07,03,09,03,16.90
2018,07,03,09,04,17.00
2018,07,03,09,05,17.00
2018,07,03,09,06,17.10
2018,07,03,09,07,17.10
2018,07,03,09,08,17.20
2018,07,03,09,09,17.20
2018,07,03,09,10,17.30
2018,07,03,09,11,17.30
2018,07,03,09,12,17.40
2018,07,03,09,13,17.50
2018,07,03,09,14,17.50
2018,07,03,09,15,17.50
2018,07,03,09,16,17.40
2018,07,03,09,17,17.50
2018,07,03,09,18,17.50
2018,07,03,09,19,17.50
2018,07,03,09,20,17.50
2018,07,03,09,21,17.40
2018,07,03,09,22,17.50
2018,07,03,09,23,17.40
2018,07,03,09,24,17.40
2018,07,03,09,25,17.30
2018,07,03,09,26,17.20
2018,07,03,09,27,17.30
2018,07,03,09,28,17.30
2018,07,03,09,29,17.30
2018,07,03,09,30,17.30
2018,07,03,09,31,17.30
2018,07,03,09,32,17.40
2018,07,03,09,33,17.30
2018,07,03,09,34,17.30
2018,07,03,09,35,17.30
2018,07,03,09,36,17.30
2018,07,03,09,37,17.30
2018,07,03,09,38,17.40
2018,07,03,09,39,17.40
2018,07,03,09,40,17.40
2018,07,03,09,41,17.40
2018,07,03,09,42,17.50
2018,07,03,09,43,17.60
2018,07,03,09,44,17.60
2018,07,03,09,45,17.60
2018,07,03,09,46,17.70
2018,07,03,09,47,17.70
2018,07,03,09,48,17.70
2018,07,03,09,49,17.70
2018,07,03,09,50,17.70
2018,07,03,09,51,17.70
2018,07,03,09,52,17.60
2018,07,03,09,53,17.60
2018,07,03,09,54,17.60
2018,07,03,09,55,17.70
2018,07,03,09,56,17.70
2018,07,03,09,57,17.70
2018,07,03,09,58,17.70
2018,07,03,09,59,17.70
2018,07,03,10,00,17.70
2018,07,03,10,01,17.60
2018,07,03,10,02,17.60
2018,07,03,10,03,17.60
2018,07,03,10,04,17.60
2018,07,03,10,05,17.60
2018,07,03,10,06,17.60
2018,07,03,10,07,17.60
2018,07,03,10,08,17.60
2018,07,03,10,09,17.50
2018,07,03,10,10,17.50
2018,07,03,10,11,17.50
2018,07,03,10,12,17.40
2018,07,03,10,13,17.50
2018,07,03,10,14,17.50
2018,07,03,10,15,17.50
2018,07,03,10,16,17.50
2018,07,03,10,17,17.50
2018,07,03,10,18,17.60
2018,07,03,10,19,17.70
2018,07,03,10,20,17.80
2018,07,03,10,21,17.90
2018,07,03,10,22,17.90
2018,07,03,10,23,18.00
2018,07,03,10,24,18.00
2018,07,03,10,25,18.00
2018,07,03,10,26,18.00
2018,07,03,10,27,18.00
2018,07,03,10,28,17.90
2018,07,03,10,29,17.90
2018,07,03,10,30,17.90
2018,07,03,10,31,17.80
2018,07,03,10,32,17.90
2018,07,03,10,33,17.90
2018,07,03,10,34,18.00
2018,07,03,10,35,18.10
2018,07,03,10,36,18.20
2018,07,03,10,37,18.30
2018,07,03,10,38,18.30
2018,07,03,10,39,18.30
2018,07,03,10,40,18.20
2018,07,03,10,41,18.20
2018,07,03,10,42,18.30
2018,07,03,10,43,18.30
2018,07,03,10,44,18.50
2018,07,03,10,45,18.50
2018,07,03,10,46,18.50
2018,07,03,10,47,18.40
2018,07,03,10,48,18.40
2018,07,03,10,49,18.30
2018,07,03,10,50,18.30
2018,07,03,10,51,18.30
2018,07,03,10,52,18.30
2018,07,03,10,53,18.40
2018,07,03,10,54,18.50
2018,07,03,10,55,18.60
2018,07,03,10,56,18.70
2018,07,03,10,57,18.80
2018,07,03,10,58,18.80
2018,07,03,10,59,18.80
2018,07,03,11,00,18.70
2018,07,03,11,01,18.70
2018,07,03,11,02,18.60
2018,07,03,11,03,18.60
2018,07,03,11,04,18.60
2018,07,03,11,05,18.60
2018,07,03,11,06,18.60
2018,07,03,11,07,18.50
2018,07,03,11,08,18.50
2018,07,03,11,09,18.50
2018,07,03,11,10,18.50
2018,07,03,11,11,18.50
2018,07,03,11,12,18.50
2018,07,03,11,13,18.60
2018,07,03,11,14,18.60
2018,07,03,11,15,18.70
2018,07,03,11,16,18.90
2018,07,03,11,17,19.00
2018,07,03,11,18,19.10
2018,07,03,11,19,19.20
2018,07,03,11,20,19.30
2018,07,03,11,21,19.30
2018,07,03,11,22,19.40
2018,07,03,11,23,19.40
2018,07,03,11,24,19.30
2018,07,03,11,25,19.30
2018,07,03,11,26,19.30
2018,07,03,11,27,19.30
2018,07,03,11,28,19.20
2018,07,03,11,29,19.20
2018,07,03,11,30,19.20
2018,07,03,11,31,19.20
2018,07,03,11,32,19.30
2018,07,03,11,33,19.30
2018,07,03,11,34,19.40
2018,07,03,11,35,19.50
2018,07,03,11,36,19.50
2018,07,03,11,37,19.50
2018,07,03,11,38,19.40
2018,07,03,11,39,19.40
2018,07,03,11,40,19.40
2018,07,03,11,41,19.50
2018,07,03,11,42,19.50
2018,07,03,11,43,19.50
2018,07,03,11,44,19.50
2018,07,03,11,45,19.50
2018,07,03,11,46,19.60
2018,07,03,11,47,19.60
2018,07,03,11,48,19.60
2018,07,03,11,49,19.70
2018,07,03,11,50,19.80
2018,07,03,11,51,19.90
2018,07,03,11,52,20.00
2018,07,03,11,53,20.00
2018,07,03,11,54,20.10
2018,07,03,11,55,20.00
2018,07,03,11,56,20.00
2018,07,03,11,57,19.80
2018,07,03,11,58,19.70
2018,07,03,11,59,19.60
2018,07,03,12,00,19.60
2018,07,03,12,01,19.60
2018,07,03,12,02,19.70
2018,07,03,12,03,19.70
2018,07,03,12,04,19.70
2018,07,03,12,05,19.80
2018,07,03,12,06,19.80
2018,07,03,12,07,19.90
2018,07,03,12,08,19.90
2018,07,03,12,09,19.90
2018,07,03,12,10,20.00
2018,07,03,12,11,20.00
2018,07,03,12,12,20.10
2018,07,03,12,13,20.10
2018,07,03,12,14,20.10
2018,07,03,12,15,20.10
2018,07,03,12,16,20.20
2018,07,03,12,17,20.20
2018,07,03,12,18,20.10
2018,07,03,12,19,20.10
2018,07,03,12,20,20.00
2018,07,03,12,21,19.90
2018,07,03,12,22,19.90
2018,07,03,12,23,19.90
2018,07,03,12,24,19.90
2018,07,03,12,25,20.00
2018,07,03,12,26,20.00
2018,07,03,12,27,20.10
2018,07,03,12,28,20.20
2018,07,03,12,29,20.30
2018,07,03,12,30,20.30
2018,07,03,12,31,20.40
2018,07,03,12,32,20.40
2018,07,03,12,33,20.30
2018,07,03,12,34,20.30
2018,07,03,12,35,20.30
2018,07,03,12,36,20.20
2018,07,03,12,37,20.20
2018,07,03,12,38,20.20
2018,07,03,12,39,20.30
2018,07,03,12,40,20.40
2018,07,03,12,41,20.40
2018,07,03,12,42,20.40
2018,07,03,12,43,20.30
2018,07,03,12,44,20.30
2018,07,03,12,45,20.20
2018,07,03,12,46,20.20
2018,07,03,12,47,20.10
2018,07,03,12,48,20.00
2018,07,03,12,49,19.90
2018,07,03,12,50,19.80
2018,07,03,12,51,19.70
2018,07,03,12,52,19.70
2018,07,03,12,53,19.70
2018,07,03,12,54,19.80
2018,07,03,12,55,19.90
2018,07,03,12,56,20.00
2018,07,03,12,57,20.00
2018,07,03,12,58,20.10
2018,07,03,12,59,20.10
2018,07,03,13,00,20.20
2018,07,03,13,01,20.30
2018,07,03,13,02,20.40
2018,07,03,13,03,20.40
2018,07,03,13,04,20.50
2018,07,03,13,05,20.40
2018,07,03,13,06,20.30
2018,07,03,13,07,20.20
2018,07,03,13,08,20.20
2018,07,03,13,09,20.20
2018,07,03,13,10,20.20
2018,07,03,13,11,20.10
2018,07,03,13,12,20.10
2018,07,03,13,13,20.10
2018,07,03,13,14,20.10
2018,07,03,13,15,20.20
2018,07,03,13,16,20.30
2018,07,03,13,17,20.30
2018,07,03,13,18,20.30
2018,07,03,13,19,20.40
2018,07,03,13,20,20.40
2018,07,03,13,21,20.30
2018,07,03,13,22,20.40
2018,07,03,13,23,20.40
2018,07,03,13,24,20.50
2018,07,03,13,25,20.60
2018,07,03,13,26,20.70
2018,07,03,13,27,20.80
2018,07,03,13,28,20.80
2018,07,03,13,29,20.80
2018,07,03,13,30,20.80
2018,07,03,13,31,20.70
2018,07,03,13,32,20.60
2018,07,03,13,33,20.60
2018,07,03,13,34,20.60
2018,07,03,13,35,20.50
2018,07,03,13,36,20.50
2018,07,03,13,37,20.60
2018,07,03,13,38,20.50
2018,07,03,13,39,20.50
2018,07,03,13,40,20.40
2018,07,03,13,41,20.30
2018,07,03,13,42,20.20
2018,07,03,13,43,20.20
2018,07,03,13,44,20.20
2018,07,03,13,45,20.20
2018,07,03,13,46,20.20
2018,07,03,13,47,20.20
2018,07,03,13,48,20.30
2018,07,03,13,49,20.30
2018,07,03,13,50,20.30
2018,07,03,13,51,20.30
2018,07,03,13,52,20.20
2018,07,03,13,53,20.20
2018,07,03,13,54,20.10
2018,07,03,13,55,20.10
2018,07,03,13,56,20.10
2018,07,03,13,57,20.00
2018,07,03,13,58,20.00
2018,07,03,13,59,19.90
2018,07,03,14,00,19.90
2018,07,03,14,01,20.00
2018,07,03,14,02,19.90
2018,07,03,14,03,19.90
2018,07,03,14,04,19.90
2018,07,03,14,05,19.80
2018,07,03,14,06,19.80
2018,07,03,14,07,19.80
2018,07,03,14,08,19.70
2018,07,03,14,09,19.70
2018,07,03,14,10,19.60
2018,07,03,14,11,19.70
2018,07,03,14,12,19.70
2018,07,03,14,13,19.70
2018,07,03,14,14,19.70
2018,07,03,14,15,19.60
2018,07,03,14,16,19.60
2018,07,03,14,17,19.60
2018,07,03,14,18,19.60
2018,07,03,14,19,19.60
2018,07,03,14,20,19.60
2018,07,03,14,21,19.60
2018,07,03,14,22,19.70
2018,07,03,14,23,19.70
2018,07,03,14,24,19.70
2018,07,03,14,25,19.80
2018,07,03,14,26,19.80
2018,07,03,14,27,19.80
2018,07,03,14,28,19.80
2018,07,03,14,29,19.70
2018,07,03,14,30,19.70
2018,07,03,14,31,19.70
2018,07,03,14,32,19.70
2018,07,03,14,33,19.70
2018,07,03,14,34,19.70
2018,07,03,14,35,19.70
2018,07,03,14,36,19.70
2018,07,03,14,37,19.70
2018,07,03,14,38,19.70
2018,07,03,14,39,19.70
2018,07,03,14,40,19.80
2018,07,03,14,41,19.80
2018,07,03,14,42,19.80
2018,07,03,14,43,19.90
2018,07,03,14,44,19.90
2018,07,03,14,45,19.90
2018,07,03,14,46,20.00
2018,07,03,14,47,20.00
2018,07,03,14,48,20.00
2018,07,03,14,49,20.00
2018,07,03,14,50,20.00
2018,07,03,14,51,20.00
2018,07,03,14,52,20.00
2018,07,03,14,53,20.10
2018,07,03,14,54,20.10
2018,07,03,14,55,20.10
2018,07,03,14,56,20.10
2018,07,03,14,57,20.20
2018,07,03,14,58,20.20
2018,07,03,14,59,20.30
2018,07,03,15,00,20.30
2018,07,03,15,01,20.40
2018,07,03,15,02,20.50
2018,07,03,15,03,20.60
2018,07,03,15,04,20.70
2018,07,03,15,05,20.70
2018,07,03,15,06,20.70
2018,07,03,15,07,20.60
2018,07,03,15,08,20.60
2018,07,03,15,09,20.60
2018,07,03,15,10,20.50
2018,07,03,15,11,20.50
2018,07,03,15,12,20.40
2018,07,03,15,13,20.40
2018,07,03,15,14,20.30
2018,07,03,15,15,20.30
2018,07,03,15,16,20.20
2018,07,03,15,17,20.30
2018,07,03,15,18,20.30
2018,07,03,15,19,20.30
2018,07,03,15,20,20.30
2018,07,03,15,21,20.20
2018,07,03,15,22,20.10
2018,07,03,15,23,20.00
2018,07,03,15,24,20.00
2018,07,03,15,25,19.90
2018,07,03,15,26,19.80
2018,07,03,15,27,19.80
2018,07,03,15,28,19.90
2018,07,03,15,29,19.90
2018,07,03,15,30,20.00
2018,07,03,15,31,20.00
2018,07,03,15,32,20.10
2018,07,03,15,33,20.10
2018,07,03,15,34,20.10
2018,07,03,15,35,20.10
2018,07,03,15,36,20.10
2018,07,03,15,37,20.10
2018,07,03,15,38,20.20
2018,07,03,15,39,20.30
2018,07,03,15,40,20.30
2018,07,03,15,41,20.30
2018,07,03,15,42,20.30
2018,07,03,15,43,20.30
2018,07,03,15,44,20.30
2018,07,03,15,45,20.30
2018,07,03,15,46,20.30
2018,07,03,15,47,20.30
2018,07,03,15,48,20.30
2018,07,03,15,49,20.30
2018,07,03,15,50,20.30
2018,07,03,15,51,20.30
2018,07,03,15,52,20.30
2018,07,03,15,53,20.30
2018,07,03,15,54,20.30
2018,07,03,15,55,20.20
2018,07,03,15,56,20.10
2018,07,03,15,57,20.10
2018,07,03,15,58,20.10
2018,07,03,15,59,20.10
2018,07,03,16,00,20.10
2018,07,03,16,01,20.20
2018,07,03,16,02,20.20
2018,07,03,16,03,20.20
2018,07,03,16,04,20.10
2018,07,03,16,05,20.10
2018,07,03,16,06,20.10
2018,07,03,16,07,20.00
2018,07,03,16,08,20.00
2018,07,03,16,09,19.90
2018,07,03,16,10,19.90
2018,07,03,16,11,20.00
2018,07,03,16,12,20.00
2018,07,03,16,13,20.10
2018,07,03,16,14,20.20
2018,07,03,16,15,20.30
2018,07,03,16,16,20.40
2018,07,03,16,17,20.50
2018,07,03,16,18,20.50
2018,07,03,16,19,20.50
2018,07,03,16,20,20.50
2018,07,03,16,21,20.60
2018,07,03,16,22,20.60
2018,07,03,16,23,20.60
2018,07,03,16,24,20.60
2018,07,03,16,25,20.60
2018,07,03,16,26,20.60
2018,07,03,16,27,20.60
2018,07,03,16,28,20.60
2018,07,03,16,29,20.50
2018,07,03,16,30,20.50
2018,07,03,16,31,20.50
2018,07,03,16,32,20.40
2018,07,03,16,33,20.40
2018,07,03,16,34,20.50
2018,07,03,16,35,20.50
2018,07,03,16,36,20.50
2018,07,03,16,37,20.60
2018,07,03,16,38,20.60
2018,07,03,16,39,20.50
2018,07,03,16,40,20.40
2018,07,03,16,41,20.40
2018,07,03,16,42,20.30
2018,07,03,16,43,20.30
2018,07,03,16,44,20.30
2018,07,03,16,45,20.30
2018,07,03,16,46,20.40
2018,07,03,16,47,20.40
2018,07,03,16,48,20.50
2018,07,03,16,49,20.60
2018,07,03,16,50,20.60
2018,07,03,16,51,20.70
2018,07,03,16,52,20.60
2018,07,03,16,53,20.60
2018,07,03,16,54,20.60
2018,07,03,16,55,20.60
2018,07,03,16,56,20.60
2018,07,03,16,57,20.60
2018,07,03,16,58,20.60
2018,07,03,16,59,20.60
2018,07,03,17,00,20.70
2018,07,03,17,01,20.80
2018,07,03,17,02,20.80
2018,07,03,17,03,20.80
2018,07,03,17,04,20.90
2018,07,03,17,05,20.90
2018,07,03,17,06,20.90
2018,07,03,17,07,21.00
2018,07,03,17,08,21.00
2018,07,03,17,09,21.10
2018,07,03,17,10,21.10
2018,07,03,17,11,21.10
2018,07,03,17,12,21.10
2018,07,03,17,13,21.10
2018,07,03,17,14,21.20
2018,07,03,17,15,21.20
2018,07,03,17,16,21.20
2018,07,03,17,17,21.10
2018,07,03,17,18,21.10
2018,07,03,17,19,21.10
2018,07,03,17,20,21.10
2018,07,03,17,21,21.20
2018,07,03,17,22,21.20
2018,07,03,17,23,21.20
2018,07,03,17,24,21.20
2018,07,03,17,25,21.10
2018,07,03,17,26,21.10
2018,07,03,17,27,21.10
2018,07,03,17,28,21.10
2018,07,03,17,29,21.10
2018,07,03,17,30,21.00
2018,07,03,17,31,21.00
2018,07,03,17,32,21.00
2018,07,03,17,33,21.00
2018,07,03,17,34,21.00
2018,07,03,17,35,21.00
2018,07,03,17,36,20.90
2018,07,03,17,37,20.90
2018,07,03,17,38,21.00